[[{"header":{"parameterUnit":"m.s-1","parameterCategory":1,"la1":30.2991,"la2":30.254,"lo1":-89.0895,"lo2":-89.0444,"dy":0.0017,"dx":0.0017,"nx":28,"ny":28,"refTime":"2024-05-28T09:00:00:Z","depth":0,"parameterNumber":2,"parameterNumberName":"U-component_of_WINDS"},"data":[0,0,0,0,0,0,0,0,0,0,0,0,0,0,0,0,0,0,0,0,0,0,0,0,0,0,0,0,0,0,0,0,0,0,0,0,0,0,0,0,0,0,0,0,0,0,0,0,0,0,0,0,0,0,0,0,0,0,2.4704,2.4705,0,2.4762,2.4763,2.4763,2.4636,2.4632,2.4628,2.4624,2.4686,2.4691,2.4697,0,0,0,0,0,0,0,0,0,0,0,0,0,2.4488,2.4492,2.4704,2.4705,2.4706,2.4762,2.4763,2.4763,2.4637,2.4632,2.4627,2.4622,2.4684,2.4691,2.4697,0,0,0,0,0,0,0,0,0,0,0,0,0,2.4567,2.4494,2.4704,2.4649,2.4645,2.4762,2.4763,2.4764,2.4638,2.4632,2.4625,2.462,2.4682,2.469,2.4698,2.4872,0,0,2.4723,2.4727,0,0,0,0,0,0,0,0,2.4563,2.4575,2.4657,2.4653,2.4649,2.4685,2.4709,2.48,2.4639,2.4641,2.4624,2.4617,2.4691,2.4698,2.4722,2.4875,2.4877,2.4724,2.4729,2.4732,2.4735,0,0,0,0,0,0,0,2.4558,2.4572,2.4727,2.4658,2.4653,2.4623,2.4627,2.4725,2.47,2.464,2.4631,2.4639,2.4688,2.4715,2.4723,2.4878,2.4724,2.4731,2.4736,2.4739,2.5177,2.5183,0,0,0,0,0,0,2.4559,2.4568,2.4725,2.4729,2.459,2.4632,2.4637,2.468,2.4698,2.4695,2.4645,2.4633,2.4704,2.4713,2.4725,2.493,2.4732,2.474,2.4745,2.517,2.5178,2.5186,0,0,0,0,0,0,2.4555,2.4574,2.4723,2.4646,2.4663,2.4642,2.4691,2.4684,2.4711,2.4702,2.4697,2.4677,2.4699,2.4713,2.4836,2.4931,2.4744,2.4751,2.5162,2.5173,2.5182,2.5343,0,0,0,0,0,0,2.4549,2.4573,2.4638,2.4649,2.4667,2.4833,2.4697,2.469,2.4725,2.4711,2.4731,2.4728,2.4696,2.4825,2.4844,2.4939,2.4757,2.5154,2.5167,2.5179,2.5329,2.5357,2.5381,0,0,0,0,0,2.4542,2.4682,2.4642,2.4662,2.4748,2.4839,2.485,2.4809,2.4734,2.48,2.4793,2.4727,2.4917,2.4838,2.4859,2.4958,2.5148,2.5163,2.5178,2.5317,2.5352,2.5381,0,0,0,0,0,0,2.4684,2.4682,2.4638,2.4786,2.4814,2.4817,2.4899,2.4846,2.4897,2.4881,2.4829,2.4834,2.4968,2.4974,2.4887,2.5127,2.502,2.504,2.5119,2.5151,2.5177,2.5173,2.4764,0,0,0,0,0,2.4732,2.4805,2.48,2.493,2.4946,2.4921,2.4959,2.4925,2.4952,2.4963,2.4965,2.4995,2.5061,2.5106,2.5166,2.5329,2.5332,2.5407,2.5433,2.5454,2.5473,2.5561,2.5595,2.5235,2.5235,2.5235,0,0,2.4833,2.4841,2.4891,2.4959,2.4977,2.5055,2.4932,2.5019,2.5077,2.4976,2.5093,2.5096,2.5126,2.527,2.5333,2.5279,2.5573,2.5473,2.5491,2.5498,2.558,2.5614,2.5645,2.5245,2.5244,2.5242,0,0,2.5058,2.507,2.5181,2.5201,2.5229,2.5211,2.5238,2.525,2.5248,2.5364,2.5291,2.5359,2.5473,2.5498,2.5525,2.5759,2.5701,2.578,2.5917,2.6004,2.6032,2.6057,2.6143,2.6174,2.5798,2.5799,2.5799,0,2.518,2.5294,2.5245,2.5338,2.5371,2.5283,2.5396,2.5417,2.5464,2.549,2.5428,2.557,2.5584,2.5733,2.579,2.5815,2.5845,2.5779,2.6032,2.6056,2.6079,2.616,2.6192,2.5808,2.5807,2.5806,2.5805,0,2.5444,2.5524,2.5611,2.5658,2.57,2.5802,2.577,2.5819,2.5781,2.577,2.589,2.5903,2.5965,2.5997,2.5961,2.6143,2.6108,2.604,2.5932,2.6124,2.6199,2.623,2.5822,2.5818,2.5816,2.5813,0,0,2.5761,2.578,2.5812,2.5833,2.5857,2.5919,2.6017,2.6077,2.6121,2.6156,2.6239,2.6338,2.6275,2.6306,2.6272,2.6348,2.6535,2.627,2.627,2.6321,2.6738,2.6791,2.6827,2.6495,2.6501,2.6506,2.6736,0,2.5985,2.6154,2.6114,2.6282,2.6356,2.6273,2.6359,2.6384,2.6377,2.6439,2.643,2.6502,2.6413,2.6432,2.6502,2.6497,2.6618,2.648,2.6574,2.6578,2.6572,2.6866,2.6922,2.7139,2.6765,2.677,2.6773,0,2.6269,2.6315,2.649,2.6503,2.6533,2.6611,2.6663,2.6723,2.675,2.6739,2.6775,2.6726,2.6825,2.6713,2.685,2.6757,2.6792,2.6796,2.6803,2.6813,2.6689,2.6886,2.7207,2.724,2.6819,2.6815,2.6812,0,2.6485,2.659,2.6709,2.6729,2.6747,2.6804,2.6814,2.6835,2.6874,2.6919,2.6944,2.7001,2.7033,2.7079,2.7047,2.6968,2.719,2.7075,2.7185,2.7187,2.7238,2.7235,2.7572,2.7257,2.7257,2.7256,2.7255,0,2.6741,2.6852,2.6807,2.6881,2.7004,2.6956,2.7079,2.7079,2.7098,2.7171,2.7102,2.7173,2.7125,2.7192,2.7168,2.7286,2.73,2.7295,2.7288,2.7303,2.7304,2.7328,2.7313,2.7265,2.7263,2.7261,2.726,0,2.7004,2.6978,2.7103,2.7109,2.7113,2.7204,2.721,2.7279,2.7265,2.7359,2.7378,2.7358,2.7433,2.7405,2.7485,2.7468,2.762,2.7592,2.7611,2.7605,2.7718,2.7709,2.8083,2.8131,2.7783,2.7787,2.7789,0,2.717,2.7254,2.7269,2.7313,2.7328,2.7399,2.7438,2.7394,2.7438,2.7476,2.7541,2.7609,2.7662,2.7786,2.778,2.7841,2.7815,2.7942,2.7824,2.7837,2.782,2.7816,2.7825,2.7966,2.797,2.7974,2.7976,0,2.7468,2.7451,2.751,2.7565,2.7614,2.7656,2.7691,2.7731,2.7689,2.7742,2.7818,2.7859,2.794,2.8011,2.8065,2.8076,2.8021,2.8013,2.8042,2.806,2.8069,2.8068,2.7679,2.8005,2.8002,2.8,2.7999,2.7998,2.7689,2.776,2.7782,2.7851,2.7873,2.7908,2.7973,2.7968,2.803,2.8093,2.8063,2.8152,2.8177,2.8245,2.8264,2.8333,2.8284,2.8325,2.8336,2.8348,2.8364,2.8056,2.8342,2.8341,2.8341,2.834,2.8339,0,2.7985,2.7995,2.8058,2.811,2.8165,2.8106,2.8142,2.8192,2.8271,2.8298,2.8352,2.844,2.8507,2.8506,2.8569,2.8625,2.8601,2.8643,2.864,2.8644,2.8403,2.8373,2.8661,2.8661,2.8661,2.8661,2.8661,2.8661,2.8146,2.8264,2.825,2.8379,2.8388,2.8473,2.85,2.8532,2.8554,2.8655,2.8711,2.8709,2.8726,2.879,2.885,2.8847,2.8875,2.8927,2.8916,2.8692,2.866,2.863,2.8601,2.8933,2.8933,2.9151,2.9153,2.9155]},{"header":{"parameterUnit":"m.s-1","parameterCategory":1,"la1":30.2991,"la2":30.254,"lo1":-89.0895,"lo2":-89.0444,"dy":0.0017,"dx":0.0017,"nx":28,"ny":28,"refTime":"2024-05-28T09:00:00:Z","depth":0,"parameterNumber":3,"parameterNumberName":"V-component_of_WINDS"},"data":[0,0,0,0,0,0,0,0,0,0,0,0,0,0,0,0,0,0,0,0,0,0,0,0,0,0,0,0,0,0,0,0,0,0,0,0,0,0,0,0,0,0,0,0,0,0,0,0,0,0,0,0,0,0,0,0,0,0,-0.1822,-0.1822,0,-0.1827,-0.1827,-0.1827,-0.1843,-0.1843,-0.1844,-0.1844,-0.1849,-0.1849,-0.1849,0,0,0,0,0,0,0,0,0,0,0,0,0,-0.1826,-0.1826,-0.1822,-0.1822,-0.1822,-0.1827,-0.1827,-0.1827,-0.1843,-0.1843,-0.1844,-0.1844,-0.1849,-0.1849,-0.1849,0,0,0,0,0,0,0,0,0,0,0,0,0,-0.1827,-0.1826,-0.1822,-0.183,-0.1831,-0.1827,-0.1827,-0.1827,-0.1843,-0.1843,-0.1844,-0.1844,-0.185,-0.1849,-0.1849,-0.1837,0,0,-0.1848,-0.1848,0,0,0,0,0,0,0,0,-0.1827,-0.1827,-0.1829,-0.183,-0.1831,-0.1835,-0.1831,-0.183,-0.1843,-0.1838,-0.1844,-0.1845,-0.1844,-0.1844,-0.1844,-0.1837,-0.1837,-0.1848,-0.1848,-0.1848,-0.1848,0,0,0,0,0,0,0,-0.1827,-0.1827,-0.1824,-0.1829,-0.183,-0.1834,-0.1835,-0.1831,-0.1838,-0.1839,-0.184,-0.184,-0.1845,-0.1844,-0.1844,-0.1837,-0.1848,-0.1848,-0.1848,-0.1848,-0.1823,-0.1822,0,0,0,0,0,0,-0.1826,-0.1827,-0.1824,-0.1824,-0.183,-0.1834,-0.1835,-0.1833,-0.1838,-0.184,-0.184,-0.1841,-0.1845,-0.1845,-0.1845,-0.1832,-0.1848,-0.1848,-0.1847,-0.1823,-0.1822,-0.1822,0,0,0,0,0,0,-0.1826,-0.1825,-0.1823,-0.1826,-0.1826,-0.1833,-0.1831,-0.1833,-0.1833,-0.1839,-0.1841,-0.1838,-0.1845,-0.1845,-0.1839,-0.1832,-0.1848,-0.1847,-0.1824,-0.1823,-0.1822,-0.1805,0,0,0,0,0,0,-0.1826,-0.1825,-0.182,-0.1825,-0.1826,-0.1817,-0.1831,-0.1833,-0.1832,-0.1834,-0.1838,-0.1839,-0.1845,-0.1839,-0.1839,-0.1832,-0.1847,-0.1824,-0.1823,-0.1822,-0.1807,-0.1804,-0.1802,0,0,0,0,0,-0.1826,-0.1815,-0.182,-0.1819,-0.182,-0.1817,-0.1817,-0.1824,-0.1831,-0.1827,-0.1831,-0.1839,-0.1833,-0.1839,-0.1838,-0.1831,-0.1825,-0.1824,-0.1822,-0.1808,-0.1805,-0.1802,0,0,0,0,0,0,-0.1808,-0.1816,-0.1821,-0.1812,-0.1814,-0.1819,-0.1814,-0.1821,-0.1821,-0.1822,-0.1831,-0.1832,-0.1825,-0.1828,-0.1834,-0.1821,-0.183,-0.1829,-0.1819,-0.1816,-0.1814,-0.1814,-0.1847,0,0,0,0,0,-0.1803,-0.18,-0.1807,-0.1798,-0.1799,-0.1806,-0.1805,-0.1811,-0.1813,-0.1814,-0.1818,-0.182,-0.1819,-0.1818,-0.1817,-0.1807,-0.1809,-0.1802,-0.18,-0.1798,-0.1797,-0.1793,-0.1791,-0.1818,-0.1818,-0.1818,0,0,-0.1793,-0.1797,-0.1794,-0.1795,-0.1797,-0.1794,-0.1807,-0.1803,-0.1801,-0.1813,-0.1808,-0.1811,-0.1815,-0.1807,-0.1804,-0.1809,-0.179,-0.1797,-0.1795,-0.1795,-0.1792,-0.1789,-0.1787,-0.1817,-0.1818,-0.1818,0,0,-0.1773,-0.1775,-0.1768,-0.177,-0.1774,-0.1779,-0.1777,-0.1783,-0.1785,-0.178,-0.179,-0.1788,-0.1786,-0.1788,-0.1789,-0.1771,-0.1779,-0.1771,-0.1759,-0.1755,-0.1753,-0.1751,-0.1746,-0.1743,-0.1769,-0.1769,-0.1769,0,-0.1759,-0.1755,-0.1764,-0.176,-0.176,-0.1772,-0.1766,-0.1767,-0.177,-0.177,-0.1776,-0.1774,-0.1777,-0.1771,-0.1766,-0.1766,-0.1766,-0.177,-0.1753,-0.1751,-0.1749,-0.1744,-0.1742,-0.1768,-0.1768,-0.1769,-0.1769,0,-0.1739,-0.1736,-0.1731,-0.1734,-0.1733,-0.1728,-0.1736,-0.1735,-0.1741,-0.1746,-0.1742,-0.1746,-0.1747,-0.1746,-0.1751,-0.1741,-0.1744,-0.1751,-0.1761,-0.1745,-0.1741,-0.1739,-0.1767,-0.1767,-0.1768,-0.1768,0,0,-0.1707,-0.1716,-0.1714,-0.1716,-0.1721,-0.1719,-0.1715,-0.1716,-0.1715,-0.1717,-0.1715,-0.1713,-0.172,-0.1721,-0.1727,-0.1724,-0.1711,-0.1731,-0.1732,-0.1728,-0.1701,-0.1695,-0.1693,-0.1716,-0.1716,-0.1715,-0.1701,0,-0.1689,-0.1682,-0.169,-0.1682,-0.168,-0.1692,-0.1689,-0.1692,-0.1696,-0.1696,-0.1701,-0.17,-0.1709,-0.171,-0.1707,-0.1713,-0.1706,-0.1714,-0.1714,-0.1714,-0.1713,-0.169,-0.1685,-0.167,-0.1699,-0.1698,-0.1698,0,-0.1666,-0.1667,-0.1659,-0.1666,-0.1665,-0.1662,-0.1665,-0.1664,-0.1668,-0.1672,-0.1674,-0.1681,-0.1679,-0.1688,-0.1685,-0.1691,-0.1692,-0.1695,-0.1694,-0.1695,-0.1705,-0.1691,-0.1666,-0.1664,-0.1695,-0.1696,-0.1696,0,-0.1644,-0.1644,-0.1639,-0.1641,-0.1649,-0.1646,-0.1649,-0.1654,-0.1655,-0.1657,-0.1658,-0.166,-0.1661,-0.1662,-0.1671,-0.1677,-0.1667,-0.1677,-0.1671,-0.167,-0.1668,-0.1668,-0.1643,-0.1668,-0.1668,-0.1668,-0.1668,0,-0.1623,-0.1617,-0.163,-0.1627,-0.1622,-0.1632,-0.1626,-0.1631,-0.1635,-0.1634,-0.1645,-0.1643,-0.1654,-0.1654,-0.1661,-0.1658,-0.1658,-0.1662,-0.1664,-0.1661,-0.1661,-0.1662,-0.1663,-0.1667,-0.1667,-0.1667,-0.1667,0,-0.1597,-0.1606,-0.1602,-0.161,-0.1612,-0.1608,-0.1615,-0.1613,-0.1619,-0.1617,-0.1618,-0.1627,-0.1628,-0.1637,-0.1639,-0.1644,-0.1638,-0.1642,-0.1637,-0.1638,-0.1631,-0.1632,-0.1607,-0.1604,-0.163,-0.1629,-0.1629,0,-0.1583,-0.158,-0.1588,-0.1588,-0.1591,-0.159,-0.1591,-0.1601,-0.1602,-0.1608,-0.1605,-0.1607,-0.1609,-0.161,-0.1617,-0.1619,-0.1624,-0.1615,-0.1624,-0.1622,-0.1624,-0.1624,-0.1625,-0.1612,-0.1612,-0.1612,-0.1612,0,-0.1558,-0.1562,-0.1563,-0.1566,-0.1567,-0.1569,-0.1573,-0.1572,-0.1583,-0.1584,-0.1585,-0.1586,-0.159,-0.1592,-0.1595,-0.1599,-0.1608,-0.1609,-0.1608,-0.1605,-0.1602,-0.1604,-0.1632,-0.1609,-0.1609,-0.161,-0.161,-0.161,-0.1538,-0.1536,-0.1542,-0.1543,-0.1546,-0.1549,-0.1548,-0.1555,-0.1556,-0.1559,-0.1565,-0.1566,-0.1572,-0.1578,-0.1581,-0.1582,-0.1587,-0.1585,-0.1584,-0.1584,-0.1583,-0.1602,-0.1583,-0.1583,-0.1583,-0.1583,-0.1583,0,-0.1514,-0.1518,-0.1519,-0.1524,-0.1525,-0.1533,-0.1537,-0.1538,-0.1538,-0.1543,-0.1545,-0.1547,-0.1549,-0.1557,-0.156,-0.156,-0.1564,-0.156,-0.156,-0.1561,-0.1578,-0.1579,-0.1557,-0.1557,-0.1557,-0.1557,-0.1557,-0.1557,-0.1501,-0.1498,-0.1504,-0.1503,-0.1508,-0.1508,-0.151,-0.1514,-0.1518,-0.1519,-0.1521,-0.1527,-0.1533,-0.1537,-0.154,-0.1542,-0.1543,-0.1539,-0.1542,-0.1558,-0.156,-0.1562,-0.1564,-0.1539,-0.1539,-0.1526,-0.1526,-0.1525]}]]